Regional Weather Roundup
Issued by NWS

Home | Current Version | Previous Version | Graphics & Text | Print | Product List | Glossary On
Versions: 1 2 3 4 5 6 7 8 9 10 11 12 13 14 15 16 17 18 19 20 21 22 23 24 25 26 27 28
000
ASUS45 KBOU 170107
RWRCO

WEATHER ROUNDUP FOR COLORADO
NATIONAL WEATHER SERVICE DENVER/BOULDER CO
700 PM MDT MON OCT 16 2017

NOTE: "FAIR" INDICATES FEW OR NO CLOUDS BELOW 12000 FEET WITH NO
SIGNIFICANT WEATHER AND/OR OBSTRUCTIONS TO VISIBILITY.

COZ001>005-013-030-031-170200-
...NORTHWEST COLORADO...

CITY           SKY/WX    TMP DP  RH WIND       PRES   REMARKS
CRAIG          FAIR      46   8  21 SW9       30.35S
HAYDEN         FAIR      56   4  12 S6        30.38S
MEEKER         FAIR      52  13  21 CALM      30.37R
RABBIT EARS PA FAIR      37   1  22 NW8       30.55S
STEAMBOAT SPGS FAIR      56   2  11 CALM      30.38S
WALDEN         FAIR      50   1  13 SW12      30.43S
$$

COZ006>008-011-170200-
...WEST CENTRAL VALLEYS...

CITY           SKY/WX    TMP DP  RH WIND       PRES   REMARKS
GRAND JUNCTION FAIR      55  15  20 CALM      30.33R
MONTROSE       FAIR      55  13  18 NE6       30.38R
EAGLE          FAIR      53   7  15 W8        30.39R
RIFLE          FAIR      61   1   9 W9        30.33R
DELTA          FAIR      60  14  16 CALM      30.33R
NUCLA          FAIR      61   3  10 NW9       30.39R
$$

COZ017>023-064>068-170200-
...SOUTHWEST COLORADO...

CITY           SKY/WX    TMP DP  RH WIND       PRES   REMARKS
DURANGO        FAIR      60  13  15 SW8       30.38R
CORTEZ         FAIR      54  17  23 S5        30.36S
PAGOSA SPRINGS FAIR      50  17  27 CALM      30.44S
TELLURIDE      NOT AVBL
WOLF CREEK PAS NOT AVBL
$$

COZ009-010-012-014-032>034-037-058>063-170200-
...CENTRAL COLORADO...

CITY           SKY/WX    TMP DP  RH WIND       PRES   REMARKS
ASPEN          FAIR      49   5  16 S3        30.44R
BUENA VISTA    FAIR      46  -1  14 W8        30.40S
COPPER MTN     FAIR      45 -26   4 NW13      30.64S
BERTHOUD PASS  FAIR      32  23  69 NW22      30.65R WCI  19
COTTONWOOD PAS FAIR      57 -42   1 W8G18     30.51R
GUNNISON       FAIR      53  -3  10 N5        30.43R
KREMMLING      FAIR      59   3  10 CALM      30.41R
LEADVILLE      FAIR      45  -2  14 NW9       30.52R
MONARCH PASS   FAIR      41  -9  11 W25       30.73S
SALIDA         NOT AVBL
SUNLIGHT       NOT AVBL
WILKERSON PASS FAIR      45 -17   7 NW9       30.62S
$$

COZ069>075-170200-
...SAN LUIS VALLEY/SANGRE DE CRISTO MOUNTAINS...

CITY           SKY/WX    TMP DP  RH WIND       PRES   REMARKS
ALAMOSA        FAIR      55  13  18 N5        30.37R
DEL NORTE      FAIR      45  15  30 W5        30.42S
LA VETA PASS   FAIR      46  10  23 S13G20    30.64R
SAGUACHE       FAIR      45  12  26 NE7       30.42R
$$

COZ035-036-038>040-170200-
...NORTHERN COLORADO FRONT RANGE...

CITY           SKY/WX    TMP DP  RH WIND       PRES   REMARKS
DENVER INTL AP FAIR      67  13  12 W3        30.22R
DMNS CITY PARK   N/A     60  20  20 SW5       30.23S
AURORA         PTCLDY    64  13  13 CALM      30.25R
FRONT RANGE AP PTCLDY    64  12  13 W3        30.24R
ERIE MUNI ARPT FAIR      54  24  31 CALM      30.26R
BOULDER MUN AP FAIR      64  21  19 CALM      30.22R
CENTENNIAL     FAIR      57  22  25 SW7       30.26R
BROOMFIELD     PTCLDY    64  14  14 NW8       30.25R
FORT COLLINS   FAIR      63  24  22 W3        30.21R
LONGMONT       FAIR      58  27  30 NW5       30.23R
$$

COZ041-046-047-076>085-087-088-170200-
...PIKES PEAK/PALMER DIVIDE AND SOUTHERN FOOTHILLS...

CITY           SKY/WX    TMP DP  RH WIND       PRES   REMARKS
COLO. SPRINGS  FAIR      60  14  16 NE7       30.29R
A. F. ACADEMY  FAIR      50  17  26 N13       30.30R
SCHRIEVER AFB  FAIR      61   6  11 NE6       30.28S
CHEYENNE MTN   FAIR      59  10  14 W7        30.28R
ELLICOTT       FAIR     N/A N/A N/A E7        30.27R
FALCON         FAIR      55   8  15 NW7       30.34R
FORT CARSON    FAIR      58  21  24 NW9       30.25R
LIMON          FAIR      42  24  49 N6        30.23R
MONUMENT HILL  NOT AVBL
CANON CITY     CLEAR     70   3   7 N3        30.20R
WALSENBURG     FAIR      61  12  15 W12       30.27R
TRINIDAD       FAIR      59  23  25 S12       30.25R HAZE
$$

COZ042>045-048>051-090-091-170200-
...NORTHEAST COLORADO...

CITY           SKY/WX    TMP DP  RH WIND       PRES   REMARKS
GREELEY ARPT   FAIR      59  28  30 W5        30.19R
AKRON          NOT AVBL
BURLINGTON     FAIR      63  29  27 SW12      30.17R
WRAY           FAIR      64  18  16 CALM      30.13R
YUMA           NOT AVBL
STERLING       FAIR      61  25  25 N3        30.15R
HOLYOKE        FAIR      63  27  25 NW7       30.14R
FORT MORGAN    FAIR      60  17  18 N12       30.19R
$$

COZ086-089-092>099-170200-
...SOUTHEAST COLORADO...

CITY           SKY/WX    TMP DP  RH WIND       PRES   REMARKS
PUEBLO         FAIR      61  17  18 E10       30.16R
LA JUNTA       FAIR      65  23  20 E8        30.15S
LAMAR          FAIR      64  24  21 SE9       30.13R
SPRINGFIELD      N/A     55  34  45 S9        30.21R
$$




USA.gov is the U.S. government's official web portal to all federal, state and local government web resources and services.